| time (UTC) | temp F | wind direction | speed MPH | gust MPH | rain 1hr in | rain 24hr in | rain mn in | humidity % | barometer mb |
| 20260509073102 | 73 | 220 | 1.0 | 5.0 | 0.00 | 0.00 | 0.00 | 49 | 1014.5 |
| 20260509071603 | 72 | 255 | 1.0 | 3.0 | 0.00 | 0.00 | 0.00 | 52 | 1014.6 |
| 20260509064608 | 71 | 252 | 1.0 | 4.0 | 0.00 | 0.00 | 0.00 | 55 | 1014.6 |
| 20260509063103 | 70 | 274 | 1.0 | 2.0 | 0.00 | 0.00 | 0.00 | 56 | 1014.5 |
| 20260509061602 | 69 | 262 | 1.0 | 3.0 | 0.00 | 0.00 | 0.00 | 59 | 1014.5 |
| 20260509060118 | 68 | 268 | 0.0 | 2.0 | 0.00 | 0.00 | 0.00 | 64 | 1014.7 |
| 20260509053056 | 66 | 172 | 0.0 | 2.0 | 0.00 | 0.00 | 0.00 | 64 | 1014.6 |
| 20260509051556 | 65 | 164 | 0.0 | 2.0 | 0.00 | 0.00 | 0.00 | 65 | 1014.9 |
| 20260509050054 | 64 | 140 | 0.0 | 2.0 | 0.00 | 0.00 | 0.00 | 66 | 1014.9 |
| 20260509044549 | 64 | 0 | 0.0 | 1.0 | 0.00 | 0.00 | 0.00 | 65 | 1015.0 |
| 20260509043052 | 64 | 106 | 0.0 | 2.0 | 0.00 | 0.00 | 0.00 | 65 | 1014.9 |
| 20260509041549 | 64 | 106 | 0.0 | 2.0 | 0.00 | 0.00 | 0.00 | 63 | 1014.9 |
| 20260509040047 | 64 | 162 | 0.0 | 2.0 | 0.00 | 0.00 | 0.00 | 59 | 1014.8 |
| 20260509034548 | 65 | 162 | 0.0 | 2.0 | 0.00 | 0.00 | 0.00 | 56 | 1014.5 |
| 20260509031545 | 65 | 155 | 0.0 | 2.0 | 0.00 | 0.00 | 0.00 | 55 | 1014.6 |
| 20260509030045 | 66 | 157 | 2.0 | 3.0 | 0.00 | 0.00 | 0.00 | 54 | 1014.5 |
| 20260509024545 | 65 | 157 | 1.0 | 1.0 | 0.00 | 0.00 | 0.00 | 59 | 1014.5 |
| 20260509021540 | 64 | 149 | 0.0 | 3.0 | 0.00 | 0.00 | 0.00 | 63 | 1014.4 |
| 20260509020041 | 66 | 326 | 1.0 | 5.0 | 0.00 | 0.00 | 0.00 | 58 | 1014.2 |
| 20260509014539 | 66 | 157 | 0.0 | 3.0 | 0.00 | 0.00 | 0.00 | 56 | 1014.6 |
| 20260509013036 | 65 | 161 | 1.0 | 2.0 | 0.00 | 0.00 | 0.00 | 60 | 1014.7 |
| 20260509010034 | 65 | 161 | 0.0 | 2.0 | 0.00 | 0.00 | 0.00 | 63 | 1015.3 |
| 20260509004533 | 65 | 151 | 1.0 | 3.0 | 0.00 | 0.00 | 0.00 | 63 | 1015.6 |
| 20260509003038 | 64 | 178 | 0.0 | 2.0 | 0.00 | 0.00 | 0.00 | 67 | 1015.7 |
| 20260508234537 | 65 | 203 | 0.0 | 2.0 | 0.00 | 0.00 | 0.00 | 68 | 1016.1 |
| 20260508233035 | 64 | 171 | 0.0 | 2.0 | 0.00 | 0.00 | 0.00 | 73 | 1016.2 |
| 20260508230037 | 66 | 154 | 0.0 | 2.0 | 0.00 | 0.00 | 0.00 | 67 | 1016.3 |
| 20260508224550 | 66 | 234 | 0.0 | 1.0 | 0.00 | 0.00 | 0.00 | 66 | 1016.6 |
| 20260508221539 | 67 | 155 | 2.0 | 3.0 | 0.00 | 0.00 | 0.00 | 65 | 1016.5 |
| 20260508220059 | 67 | 293 | 0.0 | 3.0 | 0.00 | 0.00 | 0.00 | 62 | 1016.9 |
| 20260508214533 | 68 | 309 | 2.0 | 3.0 | 0.00 | 0.00 | 0.00 | 59 | 1016.8 |
| 20260508213035 | 68 | 214 | 1.0 | 2.0 | 0.00 | 0.00 | 0.00 | 56 | 1016.7 |
| 20260508210216 | 68 | 247 | 0.0 | 2.0 | 0.00 | 0.00 | 0.00 | 57 | 1016.7 |
| 20260508203422 | 68 | 250 | 2.0 | 4.0 | 0.00 | 0.00 | 0.00 | 55 | 1016.8 |
| 20260508200421 | 69 | 228 | 1.0 | 2.0 | 0.00 | 0.00 | 0.00 | 49 | 1016.1 |
| 20260508194923 | 69 | 259 | 1.0 | 6.0 | 0.00 | 0.00 | 0.00 | 47 | 1016.3 |
| 20260508193420 | 69 | 300 | 1.0 | 10.0 | 0.00 | 0.00 | 0.00 | 46 | 1015.9 |
| 20260508190430 | 70 | 230 | 2.0 | 7.0 | 0.00 | 0.00 | 0.00 | 42 | 1015.8 |
| 20260508184927 | 70 | 234 | 4.0 | 11.0 | 0.00 | 0.00 | 0.00 | 42 | 1015.4 |
| 20260508183422 | 70 | 168 | 2.0 | 13.0 | 0.00 | 0.00 | 0.00 | 43 | 1015.2 |
| 20260508174926 | 71 | 238 | 4.0 | 12.0 | 0.00 | 0.00 | 0.00 | 43 | 1014.7 |
| 20260508171917 | 71 | 209 | 2.0 | 7.0 | 0.00 | 0.00 | 0.00 | 46 | 1014.4 |
| 20260508170415 | 71 | 193 | 2.0 | 7.0 | 0.00 | 0.00 | 0.00 | 47 | 1014.5 |
| 20260508164914 | 71 | 276 | 2.0 | 7.0 | 0.00 | 0.00 | 0.00 | 47 | 1014.2 |
| 20260508161916 | 71 | 162 | 2.0 | 10.0 | 0.00 | 0.00 | 0.00 | 46 | 1014.2 |
| 20260508160415 | 71 | 172 | 3.0 | 9.0 | 0.00 | 0.00 | 0.00 | 46 | 1014.2 |
| 20260508153413 | 71 | 217 | 2.0 | 6.0 | 0.00 | 0.00 | 0.00 | 46 | 1014.3 |
| 20260508151913 | 72 | 188 | 2.0 | 11.0 | 0.00 | 0.00 | 0.00 | 46 | 1014.2 |
| 20260508150413 | 72 | 140 | 2.0 | 13.0 | 0.00 | 0.00 | 0.00 | 46 | 1014.2 |
| 20260508143413 | 73 | 221 | 3.0 | 11.0 | 0.00 | 0.00 | 0.00 | 46 | 1014.0 |
| 20260508141919 | 73 | 226 | 2.0 | 14.0 | 0.00 | 0.00 | 0.00 | 47 | 1014.3 |
| 20260508134914 | 73 | 223 | 3.0 | 13.0 | 0.00 | 0.00 | 0.00 | 51 | 1014.5 |
| 20260508131913 | 73 | 106 | 3.0 | 9.0 | 0.00 | 0.00 | 0.00 | 48 | 1014.9 |
| 20260508130406 | 73 | 220 | 3.0 | 11.0 | 0.00 | 0.00 | 0.00 | 50 | 1015.1 |
| 20260508123420 | 72 | 275 | 4.0 | 12.0 | 0.00 | 0.00 | 0.00 | 45 | 1015.4 |
| 20260508121910 | 72 | 149 | 6.0 | 13.0 | 0.00 | 0.00 | 0.00 | 43 | 1016.0 |
| 20260508120412 | 72 | 237 | 5.0 | 14.0 | 0.00 | 0.00 | 0.00 | 42 | 1016.1 |
| 20260508113411 | 72 | 255 | 2.0 | 10.0 | 0.00 | 0.00 | 0.00 | 44 | 1016.0 |
| 20260508111910 | 71 | 128 | 3.0 | 11.0 | 0.00 | 0.00 | 0.00 | 45 | 1016.2 |
| 20260508110420 | 71 | 186 | 2.0 | 5.0 | 0.00 | 0.00 | 0.00 | 45 | 1016.6 |
| 20260508104909 | 71 | 224 | 2.0 | 7.0 | 0.00 | 0.00 | 0.00 | 46 | 1016.8 |
| 20260508101912 | 71 | 200 | 2.0 | 5.0 | 0.00 | 0.00 | 0.00 | 47 | 1017.1 |
| 20260508100408 | 71 | 217 | 2.0 | 6.0 | 0.00 | 0.00 | 0.00 | 48 | 1017.3 |
| 20260508094909 | 71 | 197 | 0.0 | 4.0 | 0.00 | 0.00 | 0.00 | 48 | 1018.0 |
| 20260508091915 | 71 | 152 | 2.0 | 9.0 | 0.00 | 0.00 | 0.00 | 51 | 1018.1 |
| 20260508090409 | 70 | 231 | 2.0 | 7.0 | 0.00 | 0.00 | 0.00 | 52 | 1018.2 |
| 20260508084908 | 69 | 197 | 2.0 | 7.0 | 0.00 | 0.00 | 0.00 | 52 | 1018.2 |
| 20260508083414 | 69 | 142 | 1.0 | 9.0 | 0.00 | 0.00 | 0.00 | 50 | 1018.4 |
| 20260508081915 | 69 | 258 | 1.0 | 7.0 | 0.00 | 0.00 | 0.00 | 49 | 1018.2 |
| 20260508080405 | 70 | 233 | 2.0 | 9.0 | 0.00 | 0.00 | 0.00 | 46 | 1018.3 |
| 20260508074903 | 69 | 238 | 1.0 | 6.0 | 0.00 | 0.00 | 0.00 | 45 | 1018.5 |